FW6591 Weather Reports


time (UTC)temp
C
wind
direction
speed
KPH
gust
KPH
rain 1hr
cm
rain 24hr
cm
rain mn
cm
humidity
%
barometer
mb
20260502193038 17 317 1.6 8.0 0.00 0.00 0.00 49 1024.5
20260502191543 15 0 0.0 3.2 0.00 0.00 0.00 52 1024.5
20260502190049 16 0 0.0 3.2 0.00 0.00 0.00 50 1024.4
20260502184542 17 0 0.0 3.2 0.00 0.00 0.00 47 1024.2
20260502183041 17 324 0.0 4.8 0.00 0.00 0.00 46 1024.1
20260502181545 17 18 0.0 3.2 0.00 0.00 0.00 44 1024.0
20260502163038 20 352 0.0 6.4 0.00 0.00 0.00 36 1023.1
20260502161539 20 0 0.0 3.2 0.00 0.00 0.00 37 1022.8
20260502151553 23 228 8.0 12.9 0.00 0.00 0.00 29 1022.3
20260502123039 25 195 3.2 8.0 0.00 0.00 0.00 23 1021.4
20260502121549 25 154 4.8 12.9 0.00 0.00 0.00 21 1021.4
20260502114544 25 276 3.2 14.5 0.00 0.00 0.00 25 1021.5
20260502113048 24 227 3.2 12.9 0.00 0.00 0.00 24 1021.6
20260502111551 24 257 4.8 16.1 0.00 0.00 0.00 25 1021.9
20260502110048 24 227 9.7 17.7 0.00 0.00 0.00 23 1022.2
20260502104553 23 299 4.8 12.9 0.00 0.00 0.00 23 1022.2
20260502103046 23 226 6.4 14.5 0.00 0.00 0.00 26 1022.4
20260502101540 23 167 8.0 12.9 0.00 0.00 0.00 28 1022.5
20260502100109 23 217 4.8 17.7 0.00 0.00 0.00 28 1022.5
20260502070046 18 13 6.4 16.1 0.00 0.00 0.00 40 1023.3
20260502064541 17 14 4.8 12.9 0.00 0.00 0.00 45 1023.1
20260502063055 15 352 1.6 6.4 0.00 0.00 0.00 49 1023.1
20260502061542 15 13 0.0 6.4 0.00 0.00 0.00 52 1023.0
20260502060050 15 50 3.2 12.9 0.00 0.00 0.00 52 1022.9
20260502054546 12 345 0.0 3.2 0.00 0.00 0.00 58 1023.0
20260502053045 12 0 1.6 3.2 0.00 0.00 0.00 60 1022.6
20260502051607 11 0 0.0 4.8 0.00 0.00 0.00 61 1022.6
20260502050047 10 0 0.0 3.2 0.00 0.00 0.00 63 1022.5
20260502044541 10 0 0.0 3.2 0.00 0.00 0.00 64 1022.5
20260502043050 11 0 0.0 3.2 0.00 0.00 0.00 63 1022.4
20260502041545 11 257 0.0 3.2 0.00 0.00 0.00 62 1022.2
20260502040051 12 44 0.0 6.4 0.00 0.00 0.00 60 1022.4
20260502034552 13 30 1.6 8.0 0.00 0.00 0.00 57 1022.3
20260502033050 12 172 3.2 11.3 0.00 0.00 0.00 60 1022.3
20260502031606 11 0 0.0 3.2 0.00 0.00 0.00 64 1021.8
20260502030046 11 0 0.0 3.2 0.00 0.00 0.00 62 1021.8
20260502024551 11 239 0.0 4.8 0.00 0.00 0.00 62 1021.4
20260502023045 11 0 0.0 3.2 0.00 0.00 0.00 60 1021.2
20260502021541 12 9 1.6 6.4 0.00 0.00 0.00 59 1021.1
20260502020044 11 229 3.2 6.4 0.00 0.00 0.00 61 1020.9
20260502014540 11 9 3.2 4.8 0.00 0.00 0.00 63 1021.0
20260502013040 10 0 0.0 3.2 0.00 0.00 0.00 66 1021.4
20260502011549 11 0 0.0 3.2 0.00 0.00 0.00 65 1021.4
20260502010047 12 0 0.0 0.0 0.00 0.00 0.00 61 1021.3
20260502004536 13 0 0.0 4.8 0.00 0.00 0.00 57 1021.5
20260502003042 15 300 6.4 12.9 0.00 0.00 0.00 51 1021.4
20260502001544 13 277 4.8 11.3 0.00 0.00 0.00 56 1021.9
20260502000044 13 247 4.8 11.3 0.00 0.00 0.00 58 1021.9
20260501234554 12 285 1.6 4.8 0.00 0.00 0.00 63 1021.9
20260501233043 11 0 0.0 3.2 0.00 0.00 0.00 67 1021.5
20260501231557 11 0 0.0 3.2 0.00 0.00 0.00 65 1021.3
20260501230045 12 360 1.6 4.8 0.00 0.00 0.00 63 1021.2
20260501224544 13 0 0.0 3.2 0.00 0.00 0.00 60 1021.2
20260501223044 14 0 0.0 3.2 0.00 0.00 0.00 56 1021.4
20260501221542 15 0 0.0 6.4 0.00 0.00 0.00 53 1021.3
20260501220051 16 151 3.2 8.0 0.00 0.00 0.00 52 1021.5
20260501214559 16 186 4.8 16.1 0.00 0.00 0.00 51 1021.6
20260501213051 17 167 3.2 20.9 0.00 0.00 0.00 49 1021.5
20260501211545 16 360 1.6 12.9 0.00 0.00 0.00 51 1021.4
20260501210044 15 12 1.6 8.0 0.00 0.00 0.00 53 1021.3
20260501204539 16 17 0.0 3.2 0.00 0.00 0.00 50 1021.5
20260501203040 17 49 0.0 9.7 0.00 0.00 0.00 47 1021.0
20260501201546 18 9 11.3 24.1 0.00 0.00 0.00 45 1021.0
20260501200044 18 316 12.9 25.7 0.00 0.00 0.00 44 1020.5
20260501194556 18 336 17.7 30.6 0.00 0.00 0.00 44 1020.3